owner,sensor,date,latitude,longitude,vertical_datum,mass_concentration_of_oxygen_in_sea_water,qcFlag 
SCCF RECON,ioos:station:SCCF:53:1,2010-06-01T00:00:00Z,26.6493,-81.8810,2.307,7.19,1111122 
SCCF RECON,ioos:station:SCCF:53:1,2010-06-01T01:00:00Z,26.6493,-81.8810,2.258,6.89,1111122 
SCCF RECON,ioos:station:SCCF:53:1,2010-06-01T02:00:00Z,26.6493,-81.8810,2.2,6.77,1111122 
SCCF RECON,ioos:station:SCCF:53:1,2010-06-01T03:00:00Z,26.6493,-81.8810,2.15,6.89,1111122 
SCCF RECON,ioos:station:SCCF:53:1,2010-06-01T04:00:00Z,26.6493,-81.8810,2.09,6.76,1111122 
SCCF RECON,ioos:station:SCCF:53:1,2010-06-01T05:00:00Z,26.6493,-81.8810,2.04,6.72,1111122 
SCCF RECON,ioos:station:SCCF:53:1,2010-06-01T06:00:00Z,26.6493,-81.8810,1.99,6.64,1111122 
SCCF RECON,ioos:station:SCCF:53:1,2010-06-01T07:00:00Z,26.6493,-81.8810,1.96,6.63,1111122 
SCCF RECON,ioos:station:SCCF:53:1,2010-06-01T08:00:00Z,26.6493,-81.8810,1.98,6.47,1111122 
SCCF RECON,ioos:station:SCCF:53:1,2010-06-01T09:00:00Z,26.6493,-81.8810,2.03,6.56,1111122 
SCCF RECON,ioos:station:SCCF:53:1,2010-06-01T10:00:00Z,26.6493,-81.8810,2.07,6.57,1111122 
SCCF RECON,ioos:station:SCCF:53:1,2010-06-01T11:00:00Z,26.6493,-81.8810,2.12,6.57,1111122 
SCCF RECON,ioos:station:SCCF:53:1,2010-06-01T12:00:00Z,26.6493,-81.8810,2.17,6.53,1111122 
SCCF RECON,ioos:station:SCCF:53:1,2010-06-01T13:00:00Z,26.6493,-81.8810,2.188,6.57,1111122 
SCCF RECON,ioos:station:SCCF:53:1,2010-06-01T14:00:00Z,26.6493,-81.8810,2.182,6.77,1111122 
SCCF RECON,ioos:station:SCCF:53:1,2010-06-01T15:00:00Z,26.6493,-81.8810,2.155,6.56,1111122 
SCCF RECON,ioos:station:SCCF:53:1,2010-06-01T16:00:00Z,26.6493,-81.8810,2.126,6.6,1111122 
SCCF RECON,ioos:station:SCCF:53:1,2010-06-01T17:00:00Z,26.6493,-81.8810,2.14,6.46,1111122 
SCCF RECON,ioos:station:SCCF:53:1,2010-06-01T18:00:00Z,26.6493,-81.8810,2.193,6.74,1111122 
SCCF RECON,ioos:station:SCCF:53:1,2010-06-01T19:00:00Z,26.6493,-81.8810,2.246,6.75,1111122 
SCCF RECON,ioos:station:SCCF:53:1,2010-06-01T20:00:00Z,26.6493,-81.8810,2.29,6.73,1111122 
SCCF RECON,ioos:station:SCCF:53:1,2010-06-01T21:00:00Z,26.6493,-81.8810,2.34,6.74,1111122 
SCCF RECON,ioos:station:SCCF:53:1,2010-06-01T22:00:00Z,26.6493,-81.8810,2.37,6.67,1111122 
SCCF RECON,ioos:station:SCCF:53:1,2010-06-01T23:00:00Z,26.6493,-81.8810,2.37,6.57,1111122 
SCCF RECON,ioos:station:SCCF:53:1,2010-06-02T00:00:00Z,26.6493,-81.8810,2.33,6.69,1111122 
SCCF RECON,ioos:station:SCCF:53:1,2010-06-02T01:00:00Z,26.6493,-81.8810,2.28,7.2,1111122 
SCCF RECON,ioos:station:SCCF:53:1,2010-06-02T02:00:00Z,26.6493,-81.8810,2.22,6.99,1111122 
SCCF RECON,ioos:station:SCCF:53:1,2010-06-02T03:00:00Z,26.6493,-81.8810,2.18,6.73,1111122 
SCCF RECON,ioos:station:SCCF:53:1,2010-06-02T04:00:00Z,26.6493,-81.8810,2.12,6.67,1111122 
SCCF RECON,ioos:station:SCCF:53:1,2010-06-02T05:00:00Z,26.6493,-81.8810,2.06,6.61,1111122 
SCCF RECON,ioos:station:SCCF:53:1,2010-06-02T06:00:00Z,26.6493,-81.8810,2.01,6.61,1111122 
SCCF RECON,ioos:station:SCCF:53:1,2010-06-02T07:00:00Z,26.6493,-81.8810,1.97,6.73,1111122 
SCCF RECON,ioos:station:SCCF:53:1,2010-06-02T08:00:00Z,26.6493,-81.8810,1.97,6.7,1111122 
SCCF RECON,ioos:station:SCCF:53:1,2010-06-02T09:00:00Z,26.6493,-81.8810,2.015,6.7,1111122 
SCCF RECON,ioos:station:SCCF:53:1,2010-06-02T10:00:00Z,26.6493,-81.8810,2.07,6.68,1111122 
SCCF RECON,ioos:station:SCCF:53:1,2010-06-02T11:00:00Z,26.6493,-81.8810,2.12,6.57,1111122 
SCCF RECON,ioos:station:SCCF:53:1,2010-06-02T12:00:00Z,26.6493,-81.8810,2.17,6.46,1111122 
SCCF RECON,ioos:station:SCCF:53:1,2010-06-02T13:00:00Z,26.6493,-81.8810,2.2,6.34,1111122 
SCCF RECON,ioos:station:SCCF:53:1,2010-06-02T14:00:00Z,26.6493,-81.8810,2.204,6.4,1111122 
SCCF RECON,ioos:station:SCCF:53:1,2010-06-02T15:00:00Z,26.6493,-81.8810,2.173,6.5,1111122 
SCCF RECON,ioos:station:SCCF:53:1,2010-06-02T16:00:00Z,26.6493,-81.8810,2.14,6.63,1111122 
SCCF RECON,ioos:station:SCCF:53:1,2010-06-02T17:00:00Z,26.6493,-81.8810,2.12,6.67,1111122 
SCCF RECON,ioos:station:SCCF:53:1,2010-06-02T18:00:00Z,26.6493,-81.8810,2.11,6.6,1111122 
SCCF RECON,ioos:station:SCCF:53:1,2010-06-02T19:00:00Z,26.6493,-81.8810,2.14,6.92,1111122 
SCCF RECON,ioos:station:SCCF:53:1,2010-06-02T20:00:00Z,26.6493,-81.8810,2.202,6.8,1111122 
SCCF RECON,ioos:station:SCCF:53:1,2010-06-02T21:00:00Z,26.6493,-81.8810,2.25,7.15,1111122 
SCCF RECON,ioos:station:SCCF:53:1,2010-06-02T22:00:00Z,26.6493,-81.8810,2.297,6.87,1111122 
SCCF RECON,ioos:station:SCCF:53:1,2010-06-02T23:00:00Z,26.6493,-81.8810,2.34,7.63,1111122 
SCCF RECON,ioos:station:SCCF:53:1,2010-06-03T00:00:00Z,26.6493,-81.8810,2.31,7.34,1111122 
SCCF RECON,ioos:station:SCCF:53:1,2010-06-03T01:00:00Z,26.6493,-81.8810,2.26,7.4,1111122 
SCCF RECON,ioos:station:SCCF:53:1,2010-06-03T02:00:00Z,26.6493,-81.8810,2.21,7.25,1111122 
SCCF RECON,ioos:station:SCCF:53:1,2010-06-03T03:00:00Z,26.6493,-81.8810,2.17,7.05,1111122 
SCCF RECON,ioos:station:SCCF:53:1,2010-06-03T04:00:00Z,26.6493,-81.8810,2.11,6.84,1111122 
SCCF RECON,ioos:station:SCCF:53:1,2010-06-03T05:00:00Z,26.6493,-81.8810,2.06,6.95,1111122 
SCCF RECON,ioos:station:SCCF:53:1,2010-06-03T06:00:00Z,26.6493,-81.8810,2.01,7.04,1111122 
SCCF RECON,ioos:station:SCCF:53:1,2010-06-03T07:00:00Z,26.6493,-81.8810,1.97,6.82,1111122 
SCCF RECON,ioos:station:SCCF:53:1,2010-06-03T08:00:00Z,26.6493,-81.8810,1.96,6.69,1111122 
SCCF RECON,ioos:station:SCCF:53:1,2010-06-03T09:00:00Z,26.6493,-81.8810,2.0,6.7,1111122 
SCCF RECON,ioos:station:SCCF:53:1,2010-06-03T10:00:00Z,26.6493,-81.8810,2.059,6.78,1111122 
SCCF RECON,ioos:station:SCCF:53:1,2010-06-03T11:00:00Z,26.6493,-81.8810,2.11,6.83,1111122 
SCCF RECON,ioos:station:SCCF:53:1,2010-06-03T12:00:00Z,26.6493,-81.8810,2.175,6.68,1111122 
SCCF RECON,ioos:station:SCCF:53:1,2010-06-03T13:00:00Z,26.6493,-81.8810,2.221,6.62,1111122 
SCCF RECON,ioos:station:SCCF:53:1,2010-06-03T14:00:00Z,26.6493,-81.8810,2.252,6.68,1111122 
SCCF RECON,ioos:station:SCCF:53:1,2010-06-03T15:00:00Z,26.6493,-81.8810,2.289,6.59,1111122 
SCCF RECON,ioos:station:SCCF:53:1,2010-06-03T16:00:00Z,26.6493,-81.8810,2.281,6.68,1111122 
SCCF RECON,ioos:station:SCCF:53:1,2010-06-03T17:00:00Z,26.6493,-81.8810,2.241,6.87,1111122 
SCCF RECON,ioos:station:SCCF:53:1,2010-06-03T18:00:00Z,26.6493,-81.8810,2.213,7.14,1111122 
SCCF RECON,ioos:station:SCCF:53:1,2010-06-03T19:00:00Z,26.6493,-81.8810,2.18,7.28,1111122 
SCCF RECON,ioos:station:SCCF:53:1,2010-06-03T20:00:00Z,26.6493,-81.8810,2.192,6.9,1111122 
SCCF RECON,ioos:station:SCCF:53:1,2010-06-03T21:00:00Z,26.6493,-81.8810,2.24,7.33,1111122 
SCCF RECON,ioos:station:SCCF:53:1,2010-06-03T22:00:00Z,26.6493,-81.8810,2.3,7.42,1111122 
SCCF RECON,ioos:station:SCCF:53:1,2010-06-03T23:00:00Z,26.6493,-81.8810,2.324,7.33,1111122 
SCCF RECON,ioos:station:SCCF:53:1,2010-06-04T00:00:00Z,26.6493,-81.8810,2.34,7.36,1111122 
SCCF RECON,ioos:station:SCCF:53:1,2010-06-04T01:00:00Z,26.6493,-81.8810,2.32,7.51,1111122 
SCCF RECON,ioos:station:SCCF:53:1,2010-06-04T02:00:00Z,26.6493,-81.8810,2.28,7.34,1111122 
SCCF RECON,ioos:station:SCCF:53:1,2010-06-04T03:00:00Z,26.6493,-81.8810,2.224,7.12,1111122 
SCCF RECON,ioos:station:SCCF:53:1,2010-06-04T04:00:00Z,26.6493,-81.8810,2.18,7.16,1111122 
SCCF RECON,ioos:station:SCCF:53:1,2010-06-04T05:00:00Z,26.6493,-81.8810,2.13,7.07,1111122 
SCCF RECON,ioos:station:SCCF:53:1,2010-06-04T06:00:00Z,26.6493,-81.8810,2.083,6.72,1111122 
SCCF RECON,ioos:station:SCCF:53:1,2010-06-04T07:00:00Z,26.6493,-81.8810,2.04,6.72,1111122 
SCCF RECON,ioos:station:SCCF:53:1,2010-06-04T08:00:00Z,26.6493,-81.8810,2.007,6.71,1111122 
SCCF RECON,ioos:station:SCCF:53:1,2010-06-04T09:00:00Z,26.6493,-81.8810,2.05,6.59,1111122 
SCCF RECON,ioos:station:SCCF:53:1,2010-06-04T10:00:00Z,26.6493,-81.8810,2.13,6.72,1111122 
SCCF RECON,ioos:station:SCCF:53:1,2010-06-04T11:00:00Z,26.6493,-81.8810,2.165,6.68,1111122 
SCCF RECON,ioos:station:SCCF:53:1,2010-06-04T12:00:00Z,26.6493,-81.8810,2.22,6.69,1111122 
SCCF RECON,ioos:station:SCCF:53:1,2010-06-04T13:00:00Z,26.6493,-81.8810,2.303,6.65,1111122 
SCCF RECON,ioos:station:SCCF:53:1,2010-06-04T14:00:00Z,26.6493,-81.8810,2.357,6.75,1111122 
SCCF RECON,ioos:station:SCCF:53:1,2010-06-04T15:00:00Z,26.6493,-81.8810,2.387,6.8,1111122 
SCCF RECON,ioos:station:SCCF:53:1,2010-06-04T16:00:00Z,26.6493,-81.8810,2.391,6.78,1111122 
SCCF RECON,ioos:station:SCCF:53:1,2010-06-04T17:00:00Z,26.6493,-81.8810,2.379,6.96,1111122 
SCCF RECON,ioos:station:SCCF:53:1,2010-06-04T18:00:00Z,26.6493,-81.8810,2.37,7.09,1111122 
SCCF RECON,ioos:station:SCCF:53:1,2010-06-04T19:00:00Z,26.6493,-81.8810,2.34,7.48,1111122 
SCCF RECON,ioos:station:SCCF:53:1,2010-06-04T20:00:00Z,26.6493,-81.8810,2.301,7.86,1111122 
SCCF RECON,ioos:station:SCCF:53:1,2010-06-04T21:00:00Z,26.6493,-81.8810,2.268,7.7,1111122 
SCCF RECON,ioos:station:SCCF:53:1,2010-06-04T22:00:00Z,26.6493,-81.8810,2.268,7.57,1111122 
SCCF RECON,ioos:station:SCCF:53:1,2010-06-04T23:00:00Z,26.6493,-81.8810,2.298,7.29,1111122 
SCCF RECON,ioos:station:SCCF:53:1,2010-06-05T00:00:00Z,26.6493,-81.8810,2.33,7.33,1111122 
SCCF RECON,ioos:station:SCCF:53:1,2010-06-05T01:00:00Z,26.6493,-81.8810,2.34,7.3,1111122 
SCCF RECON,ioos:station:SCCF:53:1,2010-06-05T02:00:00Z,26.6493,-81.8810,2.329,7.15,1111122 
SCCF RECON,ioos:station:SCCF:53:1,2010-06-05T03:00:00Z,26.6493,-81.8810,2.28,7.13,1111122 
SCCF RECON,ioos:station:SCCF:53:1,2010-06-05T04:00:00Z,26.6493,-81.8810,2.23,7.13,1111122 
SCCF RECON,ioos:station:SCCF:53:1,2010-06-05T05:00:00Z,26.6493,-81.8810,2.18,6.93,1111122 
SCCF RECON,ioos:station:SCCF:53:1,2010-06-05T06:00:00Z,26.6493,-81.8810,2.14,6.49,1111122 
SCCF RECON,ioos:station:SCCF:53:1,2010-06-05T07:00:00Z,26.6493,-81.8810,2.1,6.42,1111122 
SCCF RECON,ioos:station:SCCF:53:1,2010-06-05T08:00:00Z,26.6493,-81.8810,2.06,6.58,1111122 
SCCF RECON,ioos:station:SCCF:53:1,2010-06-05T09:00:00Z,26.6493,-81.8810,2.04,6.47,1111122 
SCCF RECON,ioos:station:SCCF:53:1,2010-06-05T10:00:00Z,26.6493,-81.8810,2.07,6.2,1111122 
SCCF RECON,ioos:station:SCCF:53:1,2010-06-05T11:00:00Z,26.6493,-81.8810,2.13,6.5,1111122 
SCCF RECON,ioos:station:SCCF:53:1,2010-06-05T12:00:00Z,26.6493,-81.8810,2.182,6.46,1111122 
SCCF RECON,ioos:station:SCCF:53:1,2010-06-05T13:00:00Z,26.6493,-81.8810,2.248,6.45,1111122 
SCCF RECON,ioos:station:SCCF:53:1,2010-06-05T14:00:00Z,26.6493,-81.8810,2.31,6.51,1111122 
SCCF RECON,ioos:station:SCCF:53:1,2010-06-05T15:00:00Z,26.6493,-81.8810,2.362,6.71,1111122 
SCCF RECON,ioos:station:SCCF:53:1,2010-06-05T16:00:00Z,26.6493,-81.8810,2.376,6.78,1111122 
SCCF RECON,ioos:station:SCCF:53:1,2010-06-05T17:00:00Z,26.6493,-81.8810,2.357,6.83,1111122 
SCCF RECON,ioos:station:SCCF:53:1,2010-06-05T18:00:00Z,26.6493,-81.8810,2.302,6.91,1111122 
SCCF RECON,ioos:station:SCCF:53:1,2010-06-05T19:00:00Z,26.6493,-81.8810,2.244,7.16,1111122 
SCCF RECON,ioos:station:SCCF:53:1,2010-06-05T20:00:00Z,26.6493,-81.8810,2.205,6.99,1111122 
SCCF RECON,ioos:station:SCCF:53:1,2010-06-05T21:00:00Z,26.6493,-81.8810,2.169,6.84,1111122 
SCCF RECON,ioos:station:SCCF:53:1,2010-06-05T22:00:00Z,26.6493,-81.8810,2.156,6.96,1111122 
SCCF RECON,ioos:station:SCCF:53:1,2010-06-05T23:00:00Z,26.6493,-81.8810,2.173,7.01,1111122 
SCCF RECON,ioos:station:SCCF:53:1,2010-06-06T00:00:00Z,26.6493,-81.8810,2.21,6.95,1111122 
SCCF RECON,ioos:station:SCCF:53:1,2010-06-06T01:00:00Z,26.6493,-81.8810,2.23,7.05,1111122 
SCCF RECON,ioos:station:SCCF:53:1,2010-06-06T02:00:00Z,26.6493,-81.8810,2.25,7.07,1111122 
SCCF RECON,ioos:station:SCCF:53:1,2010-06-06T03:00:00Z,26.6493,-81.8810,2.25,7.01,1111122 
SCCF RECON,ioos:station:SCCF:53:1,2010-06-06T04:00:00Z,26.6493,-81.8810,2.22,6.85,1111122 
SCCF RECON,ioos:station:SCCF:53:1,2010-06-06T05:00:00Z,26.6493,-81.8810,2.18,6.64,1111122 
SCCF RECON,ioos:station:SCCF:53:1,2010-06-06T06:00:00Z,26.6493,-81.8810,2.14,6.43,1111122 
SCCF RECON,ioos:station:SCCF:53:1,2010-06-06T07:00:00Z,26.6493,-81.8810,2.1,6.35,1111122 
SCCF RECON,ioos:station:SCCF:53:1,2010-06-06T08:00:00Z,26.6493,-81.8810,2.06,5.93,1111122 
SCCF RECON,ioos:station:SCCF:53:1,2010-06-06T09:00:00Z,26.6493,-81.8810,2.02,6.06,1111122 
SCCF RECON,ioos:station:SCCF:53:1,2010-06-06T10:00:00Z,26.6493,-81.8810,2.01,6.18,1111122 
SCCF RECON,ioos:station:SCCF:53:1,2010-06-06T11:00:00Z,26.6493,-81.8810,2.05,6.15,1111122 
SCCF RECON,ioos:station:SCCF:53:1,2010-06-06T12:00:00Z,26.6493,-81.8810,2.12,6.06,1111122 
SCCF RECON,ioos:station:SCCF:53:1,2010-06-06T13:00:00Z,26.6493,-81.8810,2.17,5.89,1111122 
SCCF RECON,ioos:station:SCCF:53:1,2010-06-06T14:00:00Z,26.6493,-81.8810,2.22,5.97,1111122 
SCCF RECON,ioos:station:SCCF:53:1,2010-06-06T15:00:00Z,26.6493,-81.8810,2.26,6.1,1111122 
SCCF RECON,ioos:station:SCCF:53:1,2010-06-06T16:00:00Z,26.6493,-81.8810,2.28,5.95,1111122 
SCCF RECON,ioos:station:SCCF:53:1,2010-06-06T17:00:00Z,26.6493,-81.8810,2.28,6.04,1111122 
SCCF RECON,ioos:station:SCCF:53:1,2010-06-06T18:00:00Z,26.6493,-81.8810,2.24,5.91,1111122 
SCCF RECON,ioos:station:SCCF:53:1,2010-06-06T19:00:00Z,26.6493,-81.8810,2.182,6.02,1111122 
SCCF RECON,ioos:station:SCCF:53:1,2010-06-06T20:00:00Z,26.6493,-81.8810,2.128,6.25,1111122 
SCCF RECON,ioos:station:SCCF:53:1,2010-06-06T21:00:00Z,26.6493,-81.8810,2.08,6.39,1111122 
SCCF RECON,ioos:station:SCCF:53:1,2010-06-06T22:00:00Z,26.6493,-81.8810,2.039,6.58,1111122 
SCCF RECON,ioos:station:SCCF:53:1,2010-06-06T23:00:00Z,26.6493,-81.8810,2.019,6.7,1111122 
SCCF RECON,ioos:station:SCCF:53:1,2010-06-07T00:00:00Z,26.6493,-81.8810,2.03,6.45,1111122 
SCCF RECON,ioos:station:SCCF:53:1,2010-06-07T01:00:00Z,26.6493,-81.8810,2.08,6.51,1111122 
SCCF RECON,ioos:station:SCCF:53:1,2010-06-07T02:00:00Z,26.6493,-81.8810,2.13,6.59,1111122 
SCCF RECON,ioos:station:SCCF:53:1,2010-06-07T03:00:00Z,26.6493,-81.8810,2.18,6.58,1111122 
SCCF RECON,ioos:station:SCCF:53:1,2010-06-07T04:00:00Z,26.6493,-81.8810,2.22,6.49,1111122 
SCCF RECON,ioos:station:SCCF:53:1,2010-06-07T05:00:00Z,26.6493,-81.8810,2.22,6.52,1111122 
SCCF RECON,ioos:station:SCCF:53:1,2010-06-07T06:00:00Z,26.6493,-81.8810,2.18,6.43,1111122 
SCCF RECON,ioos:station:SCCF:53:1,2010-06-07T07:00:00Z,26.6493,-81.8810,2.13,6.28,1111122 
SCCF RECON,ioos:station:SCCF:53:1,2010-06-07T08:00:00Z,26.6493,-81.8810,2.1,6.13,1111122 
SCCF RECON,ioos:station:SCCF:53:1,2010-06-07T09:00:00Z,26.6493,-81.8810,2.08,6.1,1111122 
SCCF RECON,ioos:station:SCCF:53:1,2010-06-07T10:00:00Z,26.6493,-81.8810,2.06,6.02,1111122 
SCCF RECON,ioos:station:SCCF:53:1,2010-06-07T11:00:00Z,26.6493,-81.8810,2.06,5.94,1111122 
SCCF RECON,ioos:station:SCCF:53:1,2010-06-07T12:00:00Z,26.6493,-81.8810,2.11,5.87,1111122 
SCCF RECON,ioos:station:SCCF:53:1,2010-06-07T13:00:00Z,26.6493,-81.8810,2.172,5.86,1111122 
SCCF RECON,ioos:station:SCCF:53:1,2010-06-07T14:00:00Z,26.6493,-81.8810,2.221,6.0,1111122 
SCCF RECON,ioos:station:SCCF:53:1,2010-06-07T15:00:00Z,26.6493,-81.8810,2.28,6.05,1111122 
SCCF RECON,ioos:station:SCCF:53:1,2010-06-07T16:00:00Z,26.6493,-81.8810,2.32,6.14,1111122 
SCCF RECON,ioos:station:SCCF:53:1,2010-06-07T17:00:00Z,26.6493,-81.8810,2.339,6.3,1111122 
SCCF RECON,ioos:station:SCCF:53:1,2010-06-07T18:00:00Z,26.6493,-81.8810,2.297,6.44,1111122 
SCCF RECON,ioos:station:SCCF:53:1,2010-06-07T19:00:00Z,26.6493,-81.8810,2.24,6.35,1111122 
SCCF RECON,ioos:station:SCCF:53:1,2010-06-07T20:00:00Z,26.6493,-81.8810,2.183,6.31,1111122 
SCCF RECON,ioos:station:SCCF:53:1,2010-06-07T21:00:00Z,26.6493,-81.8810,2.127,6.27,1111122 
SCCF RECON,ioos:station:SCCF:53:1,2010-06-07T22:00:00Z,26.6493,-81.8810,2.08,6.38,1111122 
SCCF RECON,ioos:station:SCCF:53:1,2010-06-07T23:00:00Z,26.6493,-81.8810,2.039,6.32,1111122 
SCCF RECON,ioos:station:SCCF:53:1,2010-06-08T00:00:00Z,26.6493,-81.8810,2.003,6.08,1111122 
SCCF RECON,ioos:station:SCCF:53:1,2010-06-08T01:00:00Z,26.6493,-81.8810,2.0,6.1,1111122 
SCCF RECON,ioos:station:SCCF:53:1,2010-06-08T02:00:00Z,26.6493,-81.8810,2.04,5.99,1111122 
SCCF RECON,ioos:station:SCCF:53:1,2010-06-08T03:00:00Z,26.6493,-81.8810,2.08,6.2,1111122 
SCCF RECON,ioos:station:SCCF:53:1,2010-06-08T04:00:00Z,26.6493,-81.8810,2.12,6.18,1111122 
SCCF RECON,ioos:station:SCCF:53:1,2010-06-08T05:00:00Z,26.6493,-81.8810,2.17,6.08,1111122 
SCCF RECON,ioos:station:SCCF:53:1,2010-06-08T06:00:00Z,26.6493,-81.8810,2.19,6.11,1111122 
SCCF RECON,ioos:station:SCCF:53:1,2010-06-08T07:00:00Z,26.6493,-81.8810,2.17,6.03,1111122 
SCCF RECON,ioos:station:SCCF:53:1,2010-06-08T08:00:00Z,26.6493,-81.8810,2.15,6.01,1111122 
SCCF RECON,ioos:station:SCCF:53:1,2010-06-08T09:00:00Z,26.6493,-81.8810,2.13,5.99,1111122 
SCCF RECON,ioos:station:SCCF:53:1,2010-06-08T10:00:00Z,26.6493,-81.8810,2.11,5.95,1111122 
SCCF RECON,ioos:station:SCCF:53:1,2010-06-08T11:00:00Z,26.6493,-81.8810,2.1,5.89,1111122 
SCCF RECON,ioos:station:SCCF:53:1,2010-06-08T12:00:00Z,26.6493,-81.8810,2.121,5.83,1111122 
SCCF RECON,ioos:station:SCCF:53:1,2010-06-08T13:00:00Z,26.6493,-81.8810,2.18,5.93,1111122 
SCCF RECON,ioos:station:SCCF:53:1,2010-06-08T14:00:00Z,26.6493,-81.8810,2.231,5.88,1111122 
SCCF RECON,ioos:station:SCCF:53:1,2010-06-08T15:00:00Z,26.6493,-81.8810,2.29,5.85,1111122 
SCCF RECON,ioos:station:SCCF:53:1,2010-06-08T16:00:00Z,26.6493,-81.8810,2.346,5.96,1111122 
SCCF RECON,ioos:station:SCCF:53:1,2010-06-08T17:00:00Z,26.6493,-81.8810,2.377,6.0,1111122 
SCCF RECON,ioos:station:SCCF:53:1,2010-06-08T18:00:00Z,26.6493,-81.8810,2.35,6.14,1111122 
SCCF RECON,ioos:station:SCCF:53:1,2010-06-08T19:00:00Z,26.6493,-81.8810,2.28,5.83,1111122 
SCCF RECON,ioos:station:SCCF:53:1,2010-06-08T20:00:00Z,26.6493,-81.8810,2.23,6.12,1111122 
SCCF RECON,ioos:station:SCCF:53:1,2010-06-08T21:00:00Z,26.6493,-81.8810,2.172,6.21,1111122 
SCCF RECON,ioos:station:SCCF:53:1,2010-06-08T22:00:00Z,26.6493,-81.8810,2.12,6.17,1111122 
SCCF RECON,ioos:station:SCCF:53:1,2010-06-08T23:00:00Z,26.6493,-81.8810,2.067,6.21,1111122 
SCCF RECON,ioos:station:SCCF:53:1,2010-06-09T00:00:00Z,26.6493,-81.8810,2.022,6.25,1111122 
SCCF RECON,ioos:station:SCCF:53:1,2010-06-09T01:00:00Z,26.6493,-81.8810,1.99,6.28,1111122 
SCCF RECON,ioos:station:SCCF:53:1,2010-06-09T02:00:00Z,26.6493,-81.8810,1.979,6.35,1111122 
SCCF RECON,ioos:station:SCCF:53:1,2010-06-09T03:00:00Z,26.6493,-81.8810,2.001,6.38,1111122 
SCCF RECON,ioos:station:SCCF:53:1,2010-06-09T04:00:00Z,26.6493,-81.8810,2.014,6.26,1111122 
SCCF RECON,ioos:station:SCCF:53:1,2010-06-09T05:00:00Z,26.6493,-81.8810,2.068,6.18,1111122 
SCCF RECON,ioos:station:SCCF:53:1,2010-06-09T06:00:00Z,26.6493,-81.8810,2.1,6.13,1111122 
SCCF RECON,ioos:station:SCCF:53:1,2010-06-09T07:00:00Z,26.6493,-81.8810,2.11,6.13,1111122 
SCCF RECON,ioos:station:SCCF:53:1,2010-06-09T08:00:00Z,26.6493,-81.8810,2.11,6.08,1111122 
SCCF RECON,ioos:station:SCCF:53:1,2010-06-09T09:00:00Z,26.6493,-81.8810,2.09,6.12,1111122 
SCCF RECON,ioos:station:SCCF:53:1,2010-06-09T10:00:00Z,26.6493,-81.8810,2.04,6.08,1111122 
SCCF RECON,ioos:station:SCCF:53:1,2010-06-09T11:00:00Z,26.6493,-81.8810,2.02,5.98,1111122 
SCCF RECON,ioos:station:SCCF:53:1,2010-06-09T12:00:00Z,26.6493,-81.8810,2.03,6.09,1111122 
SCCF RECON,ioos:station:SCCF:53:1,2010-06-09T13:00:00Z,26.6493,-81.8810,2.1,6.06,1111122 
SCCF RECON,ioos:station:SCCF:53:1,2010-06-09T14:00:00Z,26.6493,-81.8810,2.169,6.15,1111122 
SCCF RECON,ioos:station:SCCF:53:1,2010-06-09T15:00:00Z,26.6493,-81.8810,2.224,6.12,1111122 
SCCF RECON,ioos:station:SCCF:53:1,2010-06-09T16:00:00Z,26.6493,-81.8810,2.292,6.14,1111122 
SCCF RECON,ioos:station:SCCF:53:1,2010-06-09T17:00:00Z,26.6493,-81.8810,2.335,6.2,1111122 
SCCF RECON,ioos:station:SCCF:53:1,2010-06-09T18:00:00Z,26.6493,-81.8810,2.34,6.08,1111122 
SCCF RECON,ioos:station:SCCF:53:1,2010-06-09T19:00:00Z,26.6493,-81.8810,2.281,6.18,1111122 
SCCF RECON,ioos:station:SCCF:53:1,2010-06-09T20:00:00Z,26.6493,-81.8810,2.22,6.41,1111122 
SCCF RECON,ioos:station:SCCF:53:1,2010-06-09T21:00:00Z,26.6493,-81.8810,2.16,6.45,1111122 
SCCF RECON,ioos:station:SCCF:53:1,2010-06-09T22:00:00Z,26.6493,-81.8810,2.099,6.7,1111122 
SCCF RECON,ioos:station:SCCF:53:1,2010-06-09T23:00:00Z,26.6493,-81.8810,2.048,6.66,1111122 
SCCF RECON,ioos:station:SCCF:53:1,2010-06-10T00:00:00Z,26.6493,-81.8810,1.998,6.56,1111122 
SCCF RECON,ioos:station:SCCF:53:1,2010-06-10T01:00:00Z,26.6493,-81.8810,1.95,6.6,1111122 
SCCF RECON,ioos:station:SCCF:53:1,2010-06-10T02:00:00Z,26.6493,-81.8810,1.93,6.61,1111122 
SCCF RECON,ioos:station:SCCF:53:1,2010-06-10T03:00:00Z,26.6493,-81.8810,1.93,6.6,1111122 
SCCF RECON,ioos:station:SCCF:53:1,2010-06-10T04:00:00Z,26.6493,-81.8810,1.98,6.6,1111122 
SCCF RECON,ioos:station:SCCF:53:1,2010-06-10T05:00:00Z,26.6493,-81.8810,2.02,6.43,1111122 
SCCF RECON,ioos:station:SCCF:53:1,2010-06-10T06:00:00Z,26.6493,-81.8810,2.062,6.52,1111122 
SCCF RECON,ioos:station:SCCF:53:1,2010-06-10T07:00:00Z,26.6493,-81.8810,2.11,6.47,1111122 
SCCF RECON,ioos:station:SCCF:53:1,2010-06-10T08:00:00Z,26.6493,-81.8810,2.13,6.37,1111122 
SCCF RECON,ioos:station:SCCF:53:1,2010-06-10T09:00:00Z,26.6493,-81.8810,2.13,6.26,1111122 
SCCF RECON,ioos:station:SCCF:53:1,2010-06-10T10:00:00Z,26.6493,-81.8810,2.11,6.42,1111122 
SCCF RECON,ioos:station:SCCF:53:1,2010-06-10T11:00:00Z,26.6493,-81.8810,2.08,6.38,1111122 
SCCF RECON,ioos:station:SCCF:53:1,2010-06-10T12:00:00Z,26.6493,-81.8810,2.063,6.22,1111122 
SCCF RECON,ioos:station:SCCF:53:1,2010-06-10T13:00:00Z,26.6493,-81.8810,2.09,6.2,1111122 
SCCF RECON,ioos:station:SCCF:53:1,2010-06-10T14:00:00Z,26.6493,-81.8810,2.149,6.37,1111122 
SCCF RECON,ioos:station:SCCF:53:1,2010-06-10T15:00:00Z,26.6493,-81.8810,2.219,6.31,1111122 
SCCF RECON,ioos:station:SCCF:53:1,2010-06-10T16:00:00Z,26.6493,-81.8810,2.28,6.27,1111122 
SCCF RECON,ioos:station:SCCF:53:1,2010-06-10T17:00:00Z,26.6493,-81.8810,2.34,6.39,1111122 
SCCF RECON,ioos:station:SCCF:53:1,2010-06-10T18:00:00Z,26.6493,-81.8810,2.384,6.4,1111122 
SCCF RECON,ioos:station:SCCF:53:1,2010-06-10T19:00:00Z,26.6493,-81.8810,2.382,6.42,1111122 
SCCF RECON,ioos:station:SCCF:53:1,2010-06-10T20:00:00Z,26.6493,-81.8810,2.321,6.46,1111122 
SCCF RECON,ioos:station:SCCF:53:1,2010-06-10T21:00:00Z,26.6493,-81.8810,2.251,6.55,1111122 
SCCF RECON,ioos:station:SCCF:53:1,2010-06-10T22:00:00Z,26.6493,-81.8810,2.191,6.53,1111122 
SCCF RECON,ioos:station:SCCF:53:1,2010-06-10T23:00:00Z,26.6493,-81.8810,2.13,6.59,1111122 
SCCF RECON,ioos:station:SCCF:53:1,2010-06-11T00:00:00Z,26.6493,-81.8810,2.08,6.67,1111122 
SCCF RECON,ioos:station:SCCF:53:1,2010-06-11T01:00:00Z,26.6493,-81.8810,2.03,6.71,1111122 
SCCF RECON,ioos:station:SCCF:53:1,2010-06-11T02:00:00Z,26.6493,-81.8810,1.98,6.65,1111122 
SCCF RECON,ioos:station:SCCF:53:1,2010-06-11T03:00:00Z,26.6493,-81.8810,1.95,6.5,1111122 
SCCF RECON,ioos:station:SCCF:53:1,2010-06-11T04:00:00Z,26.6493,-81.8810,1.98,6.44,1111122 
SCCF RECON,ioos:station:SCCF:53:1,2010-06-11T05:00:00Z,26.6493,-81.8810,2.03,6.48,1111122 
SCCF RECON,ioos:station:SCCF:53:1,2010-06-11T06:00:00Z,26.6493,-81.8810,2.08,6.49,1111122 
SCCF RECON,ioos:station:SCCF:53:1,2010-06-11T07:00:00Z,26.6493,-81.8810,2.13,6.47,1111122 
SCCF RECON,ioos:station:SCCF:53:1,2010-06-11T08:00:00Z,26.6493,-81.8810,2.18,6.41,1111122 
SCCF RECON,ioos:station:SCCF:53:1,2010-06-11T09:00:00Z,26.6493,-81.8810,2.2,6.34,1111122 
SCCF RECON,ioos:station:SCCF:53:1,2010-06-11T10:00:00Z,26.6493,-81.8810,2.2,6.18,1111122 
SCCF RECON,ioos:station:SCCF:53:1,2010-06-11T11:00:00Z,26.6493,-81.8810,2.18,6.34,1111122 
SCCF RECON,ioos:station:SCCF:53:1,2010-06-11T12:00:00Z,26.6493,-81.8810,2.148,6.31,1111122 
SCCF RECON,ioos:station:SCCF:53:1,2010-06-11T13:00:00Z,26.6493,-81.8810,2.14,6.33,1111122 
SCCF RECON,ioos:station:SCCF:53:1,2010-06-11T14:00:00Z,26.6493,-81.8810,2.192,6.34,1111122 
SCCF RECON,ioos:station:SCCF:53:1,2010-06-11T15:00:00Z,26.6493,-81.8810,2.271,6.29,1111122 
SCCF RECON,ioos:station:SCCF:53:1,2010-06-11T16:00:00Z,26.6493,-81.8810,2.345,6.34,1111122 
SCCF RECON,ioos:station:SCCF:53:1,2010-06-11T17:00:00Z,26.6493,-81.8810,2.42,6.32,1111122 
SCCF RECON,ioos:station:SCCF:53:1,2010-06-11T18:00:00Z,26.6493,-81.8810,2.473,6.35,1111122 
SCCF RECON,ioos:station:SCCF:53:1,2010-06-11T19:00:00Z,26.6493,-81.8810,2.5,6.35,1111122 
SCCF RECON,ioos:station:SCCF:53:1,2010-06-11T20:00:00Z,26.6493,-81.8810,2.47,6.37,1111122 
SCCF RECON,ioos:station:SCCF:53:1,2010-06-11T21:00:00Z,26.6493,-81.8810,2.4,6.59,1111122 